Regional Weather Roundup
Issued by NWS Wakefield, VA

Home | Current Version | Previous Version | Text Only | Print | Product List | Glossary On
Versions: 1 2 3 4 5 6 7 8 9 10 11 12 13 14 15 16 17 18 19 20 21 22 23 24 25 26 27 28 29 30 31 32 33 34 35 36 37 38 39 40 41 42 43 44 45 46 47 48 49 50
000
ASUS41 KAKQ 170215
RWRAKQ

REGIONAL WEATHER ROUNDUP
NATIONAL WEATHER SERVICE WAKEFIELD VA
1000 PM EDT WED AUG 16 2017

Note: "fair" indicates few or no clouds below 12,000 feet with no
significant weather and/or obstructions to visibility. * = Denotes
station may not report precipitation (e.g., rain,snow,etc.),
thunder or fog.

VAZ042-051-052>054-056-170300-
NORTHERN VIRGINIA

CITY           SKY/WX    TMP DP  RH WIND       PRES   REMARKS
WASH NATIONAL  CLOUDY    82  75  79 NE5       30.02R
DULLES         CLOUDY    77  72  84 CALM      30.03R
FORT BELVOIR   CLOUDY    77  73  87 CALM      30.02R
QUANTICO       CLOUDY    79  76  90 NW5       30.02R
FREDERICKSBRG* CLOUDY    77  74  92 CALM      30.01R
STAFFORD*      CLOUDY    76  76 100 CALM      30.06R
WARRENTON      NOT AVBL
CULPEPER*      MOCLDY    77  73  87 CALM      30.04R
MANASSAS*      LGT RAIN  76  70  82 NE13      30.03R
LEESBURG*      CLOUDY    79  75  89 CALM      30.04R
WINCHESTER     MOCLDY    72  68  88 CALM      30.05R
FRONT ROYAL*   PTCLDY    75  72  88 CALM      30.04R
LURAY*         CLOUDY    77  72  83 CALM      30.05R
$$

VAZ048-049-060>072-079>083-170300-
CENTRAL AND SOUTH CENTRAL VIRGINIA

CITY           SKY/WX    TMP DP  RH WIND       PRES   REMARKS
RICHMOND       PTCLDY    79  73  82 CALM      30.02R
CHESTERFIELD*  FAIR      78  73  84 CALM      30.04R
PETERSBURG*    CLEAR     72  72 100 CALM      30.03R FOG
HANOVER        PTCLDY    76  72  87 CALM      30.03R FOG
TAPPAHANNOCK*  CLEAR     78  74  86 S3        30.03R
QUINTON*       FAIR      75  75 100 MISG      30.01R
CHARLOTTSVILLE CLEAR     78  71  79 N3        30.04R
GORDONSVILLE*  MOCLDY    76  74  95 CALM      30.03R
ORANGE*        CLOUDY    75  72  88 CALM      30.03R
LOUISA*        PTCLDY    72  70  94 CALM      30.03R
BUMPASS*       FAIR      74  74  98 CALM      30.03R
FARMVILLE*     CLEAR     78  69  73 CALM      30.03R
CREWE*         FAIR      74  69  87 CALM      30.04R
FORT PICKETT*  FAIR     N/A N/A N/A CALM      30.05R
CHASE CITY*    FAIR      74  74  99 CALM      30.05R
CLARKSVILLE*   FAIR      75  75 100 CALM      30.04R
SOUTH HILL*    CLEAR     75  74  99 CALM      30.10R
LAWRENCEVILLE* FAIR      75  74  95 CALM      30.04R
EMPORIA*         N/A     77  72  83 CALM      30.05R
$$

VAZ088>098-170300-
SOUTHEAST VIRGINIA

CITY           SKY/WX    TMP DP  RH WIND       PRES   REMARKS
NORFOLK        CLEAR     77  74  90 S3        30.02R
VIRGINIA BEACH PTCLDY    75  72  90 S5        30.02R
NORFOLK NAVAL  PTCLDY    77  72  84 SE5       30.04R
WEST POINT*    CLEAR     76  69  79 CALM      30.04R
SALUDA*        FAIR      75  75  99 S3        30.02R
NEWPORT NEWS   CLEAR     75  71  87 E3        30.02R
LANGLEY AFB    CLEAR     76  74  93 SE3       30.02R
FORT EUSTIS    CLEAR     77  69  76 CALM      30.00R
WILLIAMSBURG*  CLEAR     77  73  88 CALM      30.03R
HR EXEC AP*    FAIR      72  70  94 S3        30.01R
FRANKLIN*      CLEAR     74  71  92 CALM      30.03R
US460-WAKEFLD  CLEAR     74  73  97 CALM      30.03R
$$

VAZ020-022-025-037-045-170300-
WEST CENTRAL AND SOUTHWEST VIRGINIA

CITY           SKY/WX    TMP DP  RH WIND       PRES   REMARKS
STAUNTON*      CLEAR     72  68  88 CALM      30.08R
WAYNESBORO*    CLEAR     73  70  91 SW5       30.08R
HOT SPRINGS VA CLEAR     72  54  53 CALM      30.22S
LYNCHBURG      CLEAR     73  70  90 CALM      30.06R
DANVILLE       CLOUDY    78  75  90 W6        30.05R
SOUTH BOSTON*  FAIR      76  74  95 CALM      30.04R
MARTINSVILLE   CLOUDY    73  71  93 CALM      30.09R
ROANOKE        CLEAR     80  69  69 CALM      30.08R
BLACKSBURG     CLOUDY    74  68  82 CALM      30.16R
DUBLIN*        CLOUDY    72  70  93 CALM      30.14R
MARION*        CLOUDY    72  66  83 CALM      30.18R
HILLSVILLE*    CLOUDY    72  67  83 CALM      30.16R
RICHLANDS*     CLOUDY    72  63  73 CALM      30.16R
WISE*          MOCLDY    70  70 100 CALM      30.17R
ABINGDON*      DRIZZLE   74  73  98 SE5       30.13R
$$

MDZ021>025-VAZ099-100-170300-
SOUTHERN MARYLAND AND THE DELMARVA PENINSULA

CITY           SKY/WX    TMP DP  RH WIND       PRES   REMARKS
PATUXENT RIVER CLOUDY    79  74  84 SW6       30.01R
BAY BRIDGE APT CLEAR     79  73  83 SE3       30.02R
LEONARDTOWN    CLOUDY    77  73  88 CALM      30.04R
DOVER          CLEAR     75  75 100 S5        30.00R
GEORGETOWN     CLOUDY    77  72  84 CALM      30.02R
EASTON         MOCLDY    75  72  88 CALM      30.06R
CAMBRIDGE      CLOUDY    77  70  78 SE6       30.02R
SALISBURY      MOCLDY    73  72  96 SE3       30.03R
OCEAN CITY     PTCLDY    76  71  85 SW6       30.03R
WALLOPS ISLAND CLEAR     75  75 100 S5        30.02R
ACCOMACK*      CLEAR     75  74  97 S5        30.02S
$$

NCZ012>017-030>032-170300-
NORTH CENTRAL AND EASTERN NORTH CAROLINA

CITY           SKY/WX    TMP DP  RH WIND       PRES   REMARKS
ROANOKE RAPIDS FAIR      73  73 100 CALM      30.03R
RALEIGH        MOCLDY    80  73  79 CALM      30.05R
ELIZABETH CITY CLEAR     74  74 100 CALM      30.03R
AHOSKIE*         N/A     74  73  96 CALM      30.03R
EDENTON*       CLEAR     79  75  89 CALM      30.04R
CURRITUCK*     CLEAR     76  71  85 CALM      30.04R
KILL DEVIL HLS CLEAR     75  74  96 CALM      30.01S
MANTEO         CLEAR     75  73  93 CALM      30.03R
CAPE HATTERAS  CLEAR     76  75  97 E3        30.02R
TARBORO*       NOT AVBL
GOLDSBORO      CLEAR     79  79 100 CALM      30.02R
WASHINGTON     CLEAR     79  76  92 CALM      30.03R
GREENVILLE     CLEAR     77  77 100 CALM      30.04R
NEW BERN       CLEAR     80  78  94 CALM      30.04R
WILMINGTON     PTCLDY    78  74  87 CALM      30.03R
$$

VAZ048-170300-
ELSEWHERE

CITY           SKY/WX    TMP DP  RH WIND       PRES   REMARKS
HARRISBURG PA  PTCLDY    69  67  93 CALM      30.01R
BALTIMORE      PTCLDY    74  72  93 CALM      30.02R
ANNAPOLIS      MOCLDY    79  77  94 CALM      30.02R
ANDREWS AFB    PTCLDY    78  74  87 E5        30.02R
PHILADELPHIA   PTCLDY    79  67  66 S3        30.01R
HENDERSON NC   CLEAR     76  70  82 CALM      30.04R
GREENSBORO     CLOUDY    77  73  87 E9        30.06R
ROCKY MOUNT    CLEAR     74  74 100 CALM      30.03R FOG
$$

VAZ100-170300-
MARINE

STATION/POSITION TIME  TEMP    WIND        PRES    WAVE   SWELL
                       AIR SEA DIR/SP/G            HT/PER HT/PER
                 (UTC) (F)     (DEG/KT/KT) (MB)    (FT/S) (FT/S)
BRANDYWINE LGT   0136   78     230/ 11/ 11 1016.4R
CAPE MAY NJ      0136   76 77  170/  3/  4 1015.7R
LEWES DE         0136   76 78  220/  4/  6 1015.9R
15NM E FENWICK I 0050   78 78  190/  8/ 10 1016.4    2/ 9   2/ 9
OCEAN-CITY-INLET 0136   78 78  220/  8/  9 1016.8R
WACHAPREAGUE VA  0136   77 85  190/  6/  8 1016.6R
THOMAS POINT MD  0100   81 79   80/  6/  7   N/A
GOOSES REEF MD   0150   81     230/  2/  4 1016.9R
COVE POINT MD    0136   80     210/  6/  6 1016.9R
SOLOMONS ISLAND  0136   81 82  200/  7/  8   N/A
BISHOPS HEAD MD  0136   81 84  210/  5/  7 1016.5R
PINEY POINT MD   0148          210/ 10/ 11   N/A
POTOMAC MD       0150   80     210/  8/ 10 1015.6R
CAMBRIDGE MD     0136   78 83              1017.3R
LEWISETTA VA     0136   80 84  210/  6/  7 1016.2R
RAPPAHANNOCK LGT 0148          140/  8/  9 1017.2R
STINGRAY PT      0150   79     210/  8/ 10 1016.8R
YORK RVR RNG VA  0136   79     170/  7/  8 1016.8R
YORKTOWN VA      0136   78 81  160/  3/  3 1016.1R
JAMESTOWN VA     0150          180/  6/  6   N/A
DOMINION TERM VA 0136   80      90/  2/  4 1016.4R
KIPTOPEKE VA     0148      79  130/  4/  5   N/A
CHES BAY BRIDGE  0148   78 78  180/  8/  9 1016.6R
CAPE HENRY VA    0148   76     160/  5/  6   N/A
WILLOUBY STN VA  0148   79      40/  1/  2 1016.6R
S CRANEY ISL VA  0136   80     150/  7/  9 1016.2R
CAPE HENRY BUOY  0130      79                N/A     2/ 7
1ST LANDING BUOY 0150   77                 1016.5R
64NM E OF VA BCH 0050   77 78   80/  6/  8 1016.7    2/ 7   2/ 7
DUCK PIER NC     0148   77 79   80/  6/  6 1016.3R
44100 DUCK FRF   0105      79                N/A     3/ 8
44056 DUCK FRF   0200      79                N/A     2/ 7
OREGON INLET NC  0148           70/  3/  5 1016.7R
HATTERAS NC      0148   78 84   80/  2/  4 1016.5R
DIAMOND SHLS NC  0050   80 83   40/ 10/ 12 1015.6    2/ 7   2/ 7
CAPE LOOKOUT NC  0100   81      70/  8/  9 1016.0R
$$



USA.gov is the U.S. government's official web portal to all federal, state and local government web resources and services.